{"data":{"norad_id":62233,"intl_designator":"2024-231R","name":"STARLINK-32643","alt_names":[],"object_type":"PAYLOAD","status":"ACTIVE","operator":null,"country":"US","launch_date":"2024-12-05","launch_site_code":"AFWTR","launch_vehicle":null,"mission":null,"orbit_class":"UNKNOWN","rcs_meters":null,"size_class":null,"mass_kg":null,"dimensions":null,"purposes":["comms"],"wikipedia_slug":null,"has_3d_model":false,"image_url":null,"decayed_at":null,"tle_current":{"epoch":"2026-09-21T15:42:09.250272Z","epoch_age_seconds":77959,"freshness":"FRESH","line1":"1 62233U 24231R   26264.65427373  .00015510  00000+0  51039-3 0  9997","line2":"2 62233  53.1600  15.0363 0001127  77.1558 282.9569 15.31709342101968","mean_motion":15.31709342,"eccentricity":0.0001127,"inclination_deg":53.16,"raan_deg":15.0363,"arg_perigee_deg":77.1558,"mean_anomaly_deg":282.9569,"bstar":0.00051039,"rev_number":10196,"period_min":94.012614568228,"perigee_km":469.9402820524,"apogee_km":471.48401265021,"semimajor_km":6848.8491473513,"source":"CELESTRAK","updated_at":"2026-09-22T09:00:49.564483Z"}}}